sat.trackr.live / text

‹ back to catalog

STARLINK-35228

NORAD 65517 · 2025-198AB

PAYLOAD ACTIVE UNKNOWN

§ Identity

Operator
Country
US
Launch date
2025-09-05
Launch site
AFETR
Launch vehicle
Mass (kg)
RCS (m²)

Purposes: comms

External: N2YO · Heavens-Above · Gunter

§ Orbital elements

Epoch: 2026-05-24T20:07:11.515008Z

Period
93.85 min
Inclination
53.1591°
Eccentricity
0.0001059
Mean motion
15.34404795 rev/d
Perigee alt
462.0 km
Apogee alt
463.4 km
Semi-major
6,840.8 km
B*
1.0440e-3
RAAN
276.2358°
Arg perigee
79.1852°
Mean anomaly
280.9270°
Rev number
4,029

§ Raw data

STARLINK-352281 65517U 25198AB  26144.83832772  .00035067  00000+0  10440-2 0  99972 65517  53.1591 276.2358 0001059  79.1852 280.9270 15.34404795 40295

JSON: /api/v1/satellites/65517 · /tle

For live sub-satellite position, see the globe view (requires WebGL).

§ Visibility from observer

Set your observer location to see the next 7 days of passes ≥ 10°. The values pass through the URL so the page stays shareable.

No JS? Fill the form by hand. The geolocation button needs JavaScript.